Total_Precipitation_Accumulation
0.05 0.04 0.02 0.01 0.01 0.01 0.02 0.01 0.01 0.01 0.01 0.01 0.01 0.01 0.01 0.02 0.02 0.02 0.03 0.02 0.02 0.02 0.02 0.02 0.02 0.02 0.03 0.03 0.03 0.03 0.03 0.03 0.03 0.03 0.05 0.08 0.09 0.09 0.09 0.09 0.11 0.10 0.09 0.09 0.14 0.24 0.30 0.31 0.27 0.23 0.21 0.30 0.39 0.40 0.34 0.27 0.20 0.25 0.22 0.27 0.30 0.27 0.25 0.32 0.34 0.23 0.08 0.02 0.01 0.02 0.03 0.04 0.06 0.08 0.12 0.14 0.11 0.08 0.09 0.11 0.20 0.24 0.23 0.24 0.25
0.02 0.01 0.01 0.01 0.01 0.02 0.02 0.02 0.02 0.01 0.01 0.01 0.01 0.01 0.01 0.01 0.01 0.02 0.02 0.02 0.04 0.06 0.06 0.16 0.05 0.06 0.06 0.04 0.04 0.04 0.04 0.04 0.04 0.05 0.04 0.05 0.05 0.06 0.09 0.12 0.14 0.12 0.09 0.11 0.09 0.10 0.17 0.26 0.24 0.22 0.22 0.29 0.35 0.35 0.36 0.39 0.38 0.32 0.25 0.22 0.26 0.28 0.23 0.27 0.33 0.25 0.18 0.05 0.02 0.02 0.03 0.04 0.08 0.07 0.11 0.12 0.14 0.13 0.11 0.12 0.11 0.17 0.21 0.21 0.26
0.01 0.01 0.02 0.02 0.02 0.02 0.02 0.02 0.03 0.03 0.03 0.04 0.03 0.03 0.03 0.02 0.02 0.03 0.03 0.03 0.04 0.05 0.08 0.10 0.10 0.11 0.12 0.14 0.12 0.11 0.10 0.09 0.09 0.08 0.10 0.09 0.09 0.09 0.07 0.08 0.11 0.13 0.13 0.11 0.10 0.14 0.14 0.18 0.20 0.19 0.21 0.29 0.33 0.33 0.33 0.34 0.38 0.43 0.37 0.28 0.23 0.20 0.19 0.21 0.28 0.31 0.22 0.13 0.05 0.03 0.04 0.05 0.07 0.13 0.11 0.11 0.11 0.13 0.16 0.16 0.18 0.18 0.20 0.17 0.20
0.01 0.02 0.03 0.03 0.02 0.03 0.03 0.03 0.03 0.03 0.02 0.04 0.02 0.05 0.02 0.04 0.04 0.07 0.07 0.10 0.11 0.09 0.09 0.09 0.08 0.07 0.06 0.06 0.06 0.06 0.06 0.06 0.06 0.06 0.07 0.07 0.07 0.07 0.06 0.07 0.11 0.13 0.14 0.13 0.14 0.14 0.15 0.19 0.18 0.14 0.20 0.29 0.31 0.30 0.29 0.32 0.36 0.39 0.39 0.33 0.25 0.22 0.18 0.19 0.25 0.32 0.27 0.22 0.12 0.08 0.06 0.06 0.07 0.07 0.09 0.13 0.15 0.18 0.21 0.22 0.21 0.22 0.19 0.19 0.22
0.02 0.03 0.03 0.03 0.02 0.03 0.03 0.03 0.03 0.04 0.05 0.04 0.04 0.06 0.05 0.05 0.06 0.07 0.07 0.07 0.06 0.06 0.06 0.07 0.07 0.07 0.08 0.07 0.07 0.07 0.07 0.07 0.08 0.08 0.07 0.06 0.07 0.08 0.08 0.08 0.08 0.08 0.09 0.10 0.12 0.14 0.17 0.17 0.18 0.21 0.21 0.24 0.28 0.33 0.30 0.34 0.40 0.37 0.37 0.35 0.31 0.25 0.21 0.20 0.24 0.24 0.32 0.31 0.23 0.12 0.08 0.06 0.06 0.07 0.08 0.13 0.16 0.21 0.27 0.26 0.28 0.27 0.24 0.20 0.18
0.03 0.03 0.03 0.03 0.04 0.03 0.03 0.04 0.04 0.03 0.03 0.04 0.04 0.05 0.05 0.05 0.06 0.05 0.06 0.07 0.08 0.08 0.08 0.08 0.08 0.08 0.08 0.08 0.08 0.08 0.08 0.09 0.09 0.09 0.09 0.08 0.08 0.08 0.09 0.10 0.10 0.10 0.09 0.09 0.08 0.09 0.13 0.15 0.15 0.15 0.20 0.25 0.25 0.22 0.25 0.30 0.39 0.44 0.44 0.40 0.37 0.34 0.32 0.30 0.22 0.23 0.28 0.26 0.21 0.19 0.11 0.11 0.10 0.10 0.10 0.11 0.15 0.18 0.23 0.26 0.27 0.28 0.30 0.28 0.24
0.04 0.04 0.05 0.05 0.05 0.05 0.05 0.04 0.04 0.04 0.05 0.06 0.06 0.06 0.07 0.07 0.08 0.09 0.09 0.10 0.10 0.09 0.08 0.08 0.08 0.09 0.08 0.08 0.09 0.09 0.09 0.10 0.11 0.11 0.10 0.10 0.10 0.11 0.11 0.11 0.11 0.11 0.11 0.10 0.10 0.09 0.09 0.10 0.13 0.14 0.18 0.20 0.23 0.21 0.23 0.27 0.34 0.36 0.43 0.41 0.42 0.45 0.51 0.50 0.44 0.37 0.34 0.29 0.25 0.21 0.15 0.10 0.10 0.12 0.09 0.09 0.12 0.15 0.19 0.22 0.26 0.28 0.27 0.28 0.29
0.08 0.08 0.07 0.06 0.06 0.06 0.06 0.06 0.07 0.08 0.08 0.08 0.08 0.09 0.09 0.10 0.11 0.12 0.12 0.11 0.11 0.10 0.10 0.10 0.10 0.10 0.11 0.11 0.11 0.11 0.12 0.13 0.14 0.15 0.14 0.13 0.13 0.13 0.13 0.13 0.13 0.12 0.11 0.11 0.11 0.12 0.12 0.12 0.11 0.12 0.15 0.17 0.19 0.19 0.22 0.28 0.34 0.43 0.37 0.58 0.46 0.58 0.62 0.57 0.54 0.52 0.45 0.36 0.31 0.26 0.18 0.14 0.10 0.09 0.08 0.10 0.15 0.18 0.17 0.19 0.23 0.23 0.25 0.26 0.27
0.09 0.07 0.07 0.07 0.08 0.08 0.08 0.09 0.09 0.09 0.09 0.09 0.11 0.12 0.12 0.13 0.14 0.14 0.14 0.11 0.11 0.11 0.11 0.12 0.13 0.14 0.14 0.14 0.14 0.15 0.17 0.17 0.17 0.25 0.28 0.21 0.19 0.21 0.20 0.20 0.20 0.19 0.17 0.15 0.14 0.15 0.16 0.16 0.15 0.15 0.14 0.14 0.16 0.20 0.23 0.25 0.34 0.38 0.38 0.41 0.46 0.52 0.53 0.58 0.61 0.61 0.57 0.47 0.42 0.25 0.21 0.18 0.13 0.12 0.13 0.13 0.14 0.15 0.14 0.12 0.14 0.13 0.17 0.20 0.24
0.06 0.06 0.06 0.07 0.07 0.07 0.10 0.10 0.11 0.09 0.15 0.12 0.13 0.14 0.15 0.16 0.19 0.17 0.12 0.12 0.12 0.12 0.14 0.15 0.18 0.16 0.16 0.16 0.18 0.21 0.25 0.29 0.27 0.22 0.27 0.32 0.39 0.42 0.40 0.38 0.34 0.32 0.30 0.26 0.22 0.20 0.20 0.21 0.20 0.18 0.18 0.19 0.21 0.24 0.28 0.33 0.37 0.44 0.43 0.45 0.50 0.53 0.56 0.57 0.57 0.55 0.56 0.56 0.50 0.34 0.31 0.22 0.14 0.09 0.09 0.08 0.06 0.04 0.06 0.10 0.13 0.12 0.14 0.18 0.21
0.05 0.05 0.05 0.06 0.07 0.08 0.09 0.09 0.14 0.10 0.13 0.12 0.13 0.14 0.15 0.15 0.15 0.14 0.13 0.14 0.15 0.13 0.13 0.13 0.14 0.15 0.17 0.18 0.19 0.20 0.23 0.22 0.25 0.32 0.45 0.65 0.70 0.68 0.56 0.45 0.37 0.36 0.36 0.36 0.33 0.27 0.23 0.21 0.21 0.21 0.23 0.26 0.29 0.29 0.32 0.39 0.42 0.47 0.48 0.47 0.56 0.64 0.69 0.62 0.53 0.45 0.46 0.50 0.42 0.39 0.29 0.23 0.13 0.07 0.06 0.05 0.04 0.06 0.07 0.08 0.09 0.11 0.16 0.23 0.28
0.06 0.06 0.06 0.06 0.06 0.07 0.07 0.08 0.10 0.11 0.12 0.14 0.14 0.14 0.13 0.15 0.15 0.13 0.12 0.12 0.12 0.12 0.13 0.13 0.13 0.24 0.18 0.18 0.19 0.21 0.18 0.20 0.28 0.40 0.55 0.83 0.93 0.84 0.80 0.65 0.53 0.46 0.41 0.39 0.36 0.33 0.30 0.27 0.25 0.23 0.24 0.25 0.25 0.28 0.30 0.34 0.38 0.41 0.49 0.53 0.56 0.61 0.67 0.66 0.64 0.53 0.46 0.44 0.43 0.38 0.32 0.22 0.15 0.09 0.08 0.08 0.08 0.07 0.08 0.10 0.12 0.15 0.17 0.19 0.21
0.07 0.07 0.06 0.07 0.07 0.08 0.09 0.10 0.12 0.13 0.13 0.14 0.14 0.13 0.14 0.15 0.14 0.15 0.14 0.14 0.14 0.15 0.13 0.15 0.16 0.17 0.20 0.22 0.21 0.19 0.33 0.19 0.28 0.43 0.56 0.91 1.05 1.13 1.02 0.93 0.72 0.62 0.52 0.44 0.41 0.36 0.34 0.33 0.31 0.29 0.26 0.25 0.28 0.29 0.31 0.34 0.34 0.39 0.45 0.48 0.61 0.83 0.87 0.92 0.82 0.65 0.67 0.64 0.57 0.48 0.41 0.28 0.25 0.19 0.12 0.12 0.17 0.16 0.15 0.18 0.17 0.15 0.15 0.18 0.16
0.07 0.07 0.06 0.07 0.07 0.09 0.11 0.12 0.12 0.12 0.12 0.13 0.14 0.15 0.18 0.17 0.17 0.19 0.18 0.18 0.17 0.15 0.15 0.17 0.18 0.20 0.24 0.29 0.31 0.27 0.25 0.24 0.30 0.43 0.64 0.85 1.01 1.44 1.10 0.94 0.74 0.57 0.48 0.42 0.39 0.37 0.36 0.36 0.35 0.34 0.32 0.34 0.37 0.37 0.35 0.36 0.39 0.42 0.47 0.51 0.52 0.51 0.65 0.74 0.74 0.74 0.72 0.69 0.71 0.64 0.44 0.37 0.28 0.21 0.19 0.19 0.26 0.27 0.28 0.26 0.22 0.19 0.18 0.18 0.12
0.07 0.06 0.07 0.07 0.08 0.10 0.12 0.12 0.12 0.12 0.12 0.13 0.14 0.15 0.18 0.19 0.20 0.21 0.21 0.22 0.22 0.21 0.20 0.22 0.22 0.24 0.25 0.28 0.34 0.31 0.27 0.28 0.41 0.61 0.75 0.95 1.15 1.38 1.05 0.92 0.76 0.61 0.48 0.42 0.40 0.38 0.36 0.35 0.34 0.33 0.32 0.36 0.39 0.40 0.45 0.45 0.46 0.47 0.49 0.44 0.41 0.38 0.36 0.51 0.47 0.58 0.65 0.60 0.53 0.43 0.32 0.28 0.25 0.24 0.38 0.32 0.41 0.35 0.34 0.28 0.28 0.22 0.22 0.22 0.23
0.07 0.07 0.09 0.09 0.10 0.11 0.12 0.13 0.12 0.13 0.14 0.15 0.17 0.18 0.18 0.19 0.19 0.19 0.21 0.21 0.21 0.21 0.20 0.22 0.20 0.19 0.17 0.19 0.24 0.27 0.23 0.27 0.40 0.65 0.91 1.16 1.31 1.17 1.02 0.94 0.69 0.59 0.52 0.56 0.48 0.46 0.44 0.46 0.42 0.40 0.36 0.35 0.37 0.51 0.49 0.51 0.52 0.54 0.52 0.44 0.39 0.36 0.34 0.28 0.29 0.34 0.36 0.53 0.42 0.34 0.30 0.28 0.33 0.31 0.33 0.32 0.44 0.42 0.37 0.40 0.42 0.46 0.47 0.47 0.41
0.09 0.10 0.11 0.11 0.13 0.13 0.15 0.16 0.17 0.16 0.16 0.18 0.17 0.17 0.19 0.20 0.22 0.23 0.26 0.24 0.25 0.23 0.23 0.21 0.19 0.17 0.18 0.20 0.21 0.17 0.17 0.23 0.33 0.56 0.80 0.94 1.18 1.12 1.05 0.89 0.68 0.55 0.50 0.43 0.43 0.43 0.46 0.46 0.49 0.44 0.40 0.38 0.38 0.55 0.69 0.66 0.68 0.62 0.56 0.49 0.43 0.41 0.38 0.30 0.51 0.79 1.04 1.17 1.15 1.06 0.91 0.85 0.97 1.23 1.19 1.03 0.67 0.63 0.66 0.72 0.63 0.43 0.45 0.47 0.36
0.11 0.12 0.13 0.14 0.16 0.16 0.18 0.18 0.19 0.17 0.17 0.18 0.19 0.19 0.22 0.23 0.22 0.21 0.24 0.23 0.21 0.16 0.15 0.15 0.15 0.16 0.16 0.16 0.18 0.18 0.14 0.16 0.26 0.52 0.68 0.83 1.14 1.19 1.11 0.90 0.70 0.59 0.51 0.44 0.42 0.41 0.36 0.38 0.43 0.44 0.44 0.41 0.46 0.58 0.85 0.84 0.87 0.72 0.63 0.59 0.53 0.50 0.40 0.32 0.34 0.39 0.67 1.02 1.34 1.56 1.62 1.50 1.34 1.32 1.47 1.38 1.55 1.09 1.01 1.22 0.75 0.44 0.45 0.40 0.37
0.13 0.16 0.17 0.15 0.17 0.18 0.16 0.16 0.17 0.18 0.19 0.18 0.20 0.24 0.22 0.20 0.16 0.16 0.17 0.17 0.15 0.15 0.16 0.16 0.13 0.12 0.13 0.15 0.17 0.22 0.24 0.24 0.29 0.40 0.53 0.76 0.86 0.92 0.83 0.77 0.69 0.55 0.50 0.48 0.42 0.44 0.39 0.38 0.42 0.45 0.43 0.40 0.62 0.75 1.00 0.96 0.96 0.74 0.56 0.55 0.55 0.48 0.34 0.29 0.35 0.43 0.48 0.47 0.50 0.53 0.68 0.89 0.99 0.93 0.82 0.90 0.99 1.24 1.05 1.18 0.91 0.73 0.73 0.53 0.41
0.16 0.17 0.16 0.19 0.16 0.14 0.15 0.18 0.19 0.20 0.20 0.20 0.20 0.22 0.19 0.17 0.16 0.17 0.16 0.16 0.16 0.15 0.15 0.14 0.14 0.13 0.12 0.16 0.18 0.24 0.30 0.27 0.30 0.34 0.53 0.69 0.95 0.91 0.85 0.81 0.74 0.61 0.58 0.56 0.56 0.48 0.41 0.43 0.43 0.49 0.57 0.71 0.80 1.05 1.11 1.63 1.18 0.88 0.62 0.61 0.61 0.50 0.30 0.27 0.29 0.33 0.38 0.37 0.34 0.35 0.38 0.41 0.48 0.50 0.52 0.52 0.54 0.67 0.85 0.63 0.64 0.80 0.78 0.62 0.48
0.17 0.17 0.17 0.15 0.14 0.15 0.17 0.19 0.21 0.21 0.21 0.24 0.23 0.19 0.16 0.18 0.17 0.16 0.16 0.15 0.18 0.17 0.13 0.13 0.15 0.15 0.15 0.16 0.20 0.26 0.32 0.39 0.39 0.43 0.52 0.59 0.79 1.03 0.83 0.71 0.59 0.60 0.67 0.69 0.60 0.51 0.40 0.36 0.33 0.33 0.38 0.50 0.76 1.07 1.19 1.29 1.24 1.04 1.12 0.88 0.53 0.33 0.35 0.45 0.50 0.52 0.44 0.41 0.36 0.36 0.35 0.37 0.39 0.40 0.41 0.38 0.41 0.47 0.48 0.56 0.53 0.43 0.43 0.51 0.54
0.16 0.16 0.15 0.15 0.16 0.17 0.19 0.21 0.22 0.23 0.21 0.20 0.20 0.16 0.14 0.15 0.17 0.17 0.18 0.20 0.19 0.16 0.15 0.19 0.22 0.20 0.19 0.23 0.28 0.34 0.29 0.28 0.26 0.24 0.27 0.43 0.60 0.92 0.80 0.63 0.51 0.65 0.77 0.68 0.56 0.45 0.37 0.31 0.30 0.32 0.37 0.50 0.62 0.95 1.29 1.36 1.41 1.13 1.01 1.24 1.35 1.36 0.80 0.69 0.62 0.59 0.52 0.46 0.41 0.41 0.38 0.37 0.40 0.37 0.33 0.31 0.26 0.26 0.32 0.36 0.40 0.39 0.31 0.30 0.31
0.16 0.17 0.17 0.17 0.17 0.19 0.20 0.21 0.21 0.20 0.20 0.20 0.23 0.20 0.15 0.15 0.16 0.19 0.23 0.26 0.25 0.26 0.25 0.26 0.28 0.26 0.23 0.22 0.22 0.25 0.26 0.26 0.26 0.24 0.24 0.36 0.51 0.74 0.85 0.80 0.82 0.73 0.79 0.73 0.54 0.41 0.35 0.34 0.32 0.33 0.46 0.64 0.87 1.10 1.25 1.43 1.09 1.07 1.53 1.43 1.33 1.21 1.15 1.03 1.03 0.99 0.88 0.72 0.56 0.50 0.41 0.35 0.34 0.32 0.29 0.26 0.23 0.20 0.21 0.24 0.27 0.31 0.39 0.39 0.29
0.18 0.20 0.19 0.18 0.18 0.17 0.18 0.18 0.19 0.20 0.23 0.23 0.21 0.19 0.17 0.18 0.19 0.20 0.22 0.28 0.29 0.27 0.21 0.24 0.25 0.25 0.25 0.25 0.27 0.28 0.28 0.27 0.27 0.27 0.28 0.30 0.44 0.72 0.84 0.90 0.99 0.80 0.65 0.53 0.45 0.41 0.40 0.36 0.35 0.43 0.76 0.99 1.26 1.43 1.48 1.38 1.09 1.19 1.47 1.20 1.23 1.24 1.09 1.02 0.97 0.95 0.89 0.78 0.70 0.59 0.50 0.38 0.31 0.31 0.26 0.22 0.22 0.19 0.18 0.21 0.24 0.27 0.50 0.38 0.31
0.23 0.21 0.19 0.16 0.16 0.16 0.17 0.18 0.18 0.19 0.20 0.21 0.22 0.20 0.17 0.17 0.20 0.19 0.24 0.29 0.31 0.29 0.24 0.27 0.30 0.30 0.30 0.34 0.36 0.34 0.31 0.28 0.28 0.28 0.29 0.29 0.38 0.63 0.79 0.81 0.72 0.62 0.61 0.49 0.44 0.45 0.45 0.62 0.78 0.99 1.01 1.14 1.22 1.22 1.18 1.06 1.15 1.01 1.03 0.97 0.95 0.85 1.02 1.05 0.87 0.69 0.68 0.69 0.59 0.47 0.38 0.34 0.28 0.24 0.24 0.25 0.26 0.22 0.22 0.24 0.27 0.26 0.28 0.31 0.25
0.22 0.19 0.16 0.14 0.15 0.16 0.17 0.15 0.16 0.18 0.17 0.16 0.17 0.18 0.19 0.20 0.24 0.23 0.27 0.30 0.27 0.31 0.33 0.33 0.35 0.35 0.39 0.41 0.44 0.40 0.35 0.33 0.30 0.28 0.29 0.29 0.33 0.47 0.66 0.50 0.46 0.45 0.47 0.43 0.37 0.36 0.56 0.80 0.80 0.65 0.68 0.68 0.72 0.70 0.80 0.51 0.50 0.62 0.73 0.79 0.86 0.81 0.76 0.78 0.77 0.63 0.54 0.40 0.34 0.36 0.34 0.32 0.33 0.30 0.28 0.28 0.29 0.28 0.24 0.24 0.23 0.29 0.26 0.26 0.27
0.20 0.17 0.14 0.14 0.15 0.16 0.17 0.18 0.19 0.17 0.15 0.14 0.15 0.16 0.18 0.21 0.23 0.26 0.31 0.32 0.31 0.35 0.38 0.40 0.43 0.45 0.48 0.42 0.40 0.37 0.36 0.33 0.31 0.28 0.27 0.34 0.35 0.36 0.47 0.47 0.44 0.42 0.39 0.43 0.41 0.40 0.38 0.45 0.46 0.48 0.49 0.50 0.54 0.60 0.47 0.36 0.43 0.56 0.56 0.61 0.67 0.76 0.67 0.56 0.51 0.52 0.48 0.35 0.30 0.27 0.26 0.29 0.36 0.43 0.44 0.37 0.33 0.28 0.24 0.21 0.21 0.21 0.21 0.24 0.24
0.19 0.17 0.15 0.15 0.17 0.17 0.19 0.18 0.18 0.17 0.17 0.18 0.19 0.16 0.17 0.17 0.23 0.28 0.34 0.43 0.51 0.51 0.52 0.54 0.58 0.65 0.68 0.52 0.42 0.33 0.35 0.36 0.33 0.36 0.39 0.42 0.45 0.50 0.53 0.48 0.44 0.38 0.39 0.40 0.39 0.36 0.38 0.45 0.54 0.62 0.71 0.74 0.67 0.62 0.58 0.61 0.54 0.43 0.35 0.38 0.49 0.54 0.60 0.64 0.64 0.42 0.40 0.32 0.29 0.29 0.31 0.34 0.43 0.43 0.47 0.46 0.35 0.24 0.22 0.27 0.21 0.20 0.19 0.21 0.30
0.18 0.16 0.15 0.16 0.16 0.16 0.17 0.18 0.17 0.17 0.17 0.18 0.22 0.25 0.24 0.26 0.30 0.27 0.23 0.35 0.54 0.83 1.03 0.93 0.86 0.91 0.74 0.69 0.61 0.47 0.42 0.43 0.42 0.40 0.43 0.52 0.62 0.68 0.65 0.57 0.48 0.45 0.41 0.40 0.39 0.44 0.47 0.51 0.50 0.45 0.41 0.41 0.50 0.54 0.50 0.46 0.42 0.38 0.36 0.36 0.39 0.52 0.63 0.65 0.69 0.64 0.52 0.42 0.38 0.38 0.37 0.38 0.36 0.34 0.33 0.43 0.39 0.36 0.25 0.25 0.21 0.18 0.20 0.20 0.23
0.21 0.17 0.16 0.16 0.16 0.17 0.18 0.16 0.15 0.17 0.18 0.18 0.18 0.20 0.24 0.31 0.34 0.42 0.38 0.30 0.37 0.54 0.95 1.08 1.09 1.05 1.03 0.82 0.70 0.77 0.75 0.59 0.59 0.76 0.83 1.00 0.88 0.82 0.78 0.79 0.67 0.56 0.46 0.39 0.44 0.44 0.47 0.48 0.46 0.44 0.43 0.42 0.45 0.50 0.50 0.49 0.50 0.49 0.45 0.42 0.39 0.40 0.48 0.62 0.58 0.49 0.46 0.47 0.43 0.41 0.36 0.35 0.36 0.35 0.34 0.34 0.28 0.27 0.30 0.31 0.28 0.23 0.25 0.28 0.26
0.26 0.21 0.18 0.18 0.17 0.20 0.19 0.17 0.16 0.18 0.19 0.18 0.18 0.19 0.19 0.20 0.27 0.33 0.32 0.32 0.33 0.50 0.70 0.90 1.03 1.04 1.27 1.17 0.76 0.63 0.60 0.53 0.65 0.70 0.85 1.04 1.21 0.79 0.85 0.83 0.73 0.74 0.68 0.62 0.66 0.61 0.55 0.50 0.48 0.45 0.44 0.44 0.45 0.48 0.48 0.45 0.45 0.48 0.49 0.46 0.43 0.42 0.40 0.44 0.58 0.57 0.60 0.62 0.56 0.47 0.42 0.38 0.36 0.34 0.35 0.30 0.30 0.27 0.26 0.31 0.32 0.37 0.34 0.29 0.26
0.32 0.26 0.22 0.20 0.19 0.18 0.18 0.18 0.18 0.18 0.17 0.17 0.18 0.19 0.17 0.15 0.14 0.20 0.32 0.35 0.35 0.46 0.56 0.70 0.88 1.04 1.02 1.03 0.94 0.78 0.67 0.64 0.58 0.76 0.89 1.16 0.79 0.67 0.74 0.74 0.81 0.78 0.65 0.54 0.53 0.58 0.52 0.50 0.49 0.48 0.47 0.47 0.48 0.48 0.46 0.43 0.43 0.43 0.48 0.54 0.53 0.48 0.45 0.45 0.46 0.49 0.51 0.54 0.59 0.59 0.55 0.52 0.44 0.37 0.36 0.33 0.31 0.31 0.31 0.37 0.42 0.38 0.38 0.35 0.29
0.30 0.27 0.24 0.21 0.20 0.17 0.18 0.18 0.18 0.18 0.19 0.19 0.18 0.18 0.19 0.19 0.20 0.16 0.17 0.23 0.32 0.37 0.37 0.43 0.54 0.63 0.71 0.84 0.95 0.96 0.78 0.71 0.69 0.95 1.00 0.79 0.58 0.51 0.66 0.84 0.82 0.67 0.67 0.54 0.43 0.42 0.42 0.40 0.44 0.46 0.45 0.46 0.46 0.45 0.46 0.45 0.44 0.43 0.44 0.46 0.48 0.49 0.47 0.44 0.44 0.44 0.48 0.56 0.59 0.54 0.51 0.59 0.53 0.47 0.40 0.37 0.39 0.42 0.40 0.35 0.32 0.34 0.34 0.35 0.33
0.25 0.27 0.26 0.23 0.22 0.20 0.18 0.19 0.20 0.19 0.19 0.20 0.20 0.20 0.19 0.21 0.23 0.23 0.23 0.16 0.18 0.23 0.28 0.29 0.32 0.33 0.35 0.45 0.55 0.55 0.59 0.67 0.63 0.56 0.66 0.66 0.75 0.75 0.66 0.59 0.49 0.41 0.43 0.44 0.41 0.37 0.36 0.35 0.36 0.37 0.37 0.36 0.37 0.37 0.37 0.37 0.37 0.37 0.38 0.40 0.42 0.42 0.43 0.42 0.41 0.43 0.45 0.48 0.53 0.51 0.49 0.50 0.51 0.55 0.58 0.54 0.44 0.38 0.39 0.37 0.34 0.35 0.40 0.41 0.35
0.23 0.22 0.19 0.18 0.20 0.20 0.19 0.20 0.20 0.20 0.19 0.19 0.19 0.20 0.22 0.20 0.22 0.26 0.30 0.29 0.30 0.29 0.25 0.25 0.21 0.19 0.27 0.32 0.39 0.39 0.40 0.43 0.49 0.54 0.60 0.63 0.63 0.58 0.52 0.45 0.40 0.28 0.24 0.24 0.25 0.27 0.27 0.28 0.28 0.28 0.27 0.28 0.28 0.27 0.27 0.28 0.30 0.30 0.30 0.31 0.31 0.32 0.34 0.37 0.38 0.37 0.37 0.39 0.40 0.41 0.43 0.44 0.45 0.47 0.49 0.54 0.55 0.57 0.50 0.45 0.40 0.43 0.38 0.34 0.32
0.22 0.22 0.18 0.16 0.17 0.19 0.19 0.19 0.20 0.21 0.21 0.20 0.20 0.22 0.22 0.21 0.24 0.25 0.26 0.26 0.32 0.31 0.27 0.25 0.24 0.21 0.19 0.23 0.29 0.33 0.34 0.35 0.44 0.54 0.62 0.65 0.62 0.54 0.44 0.35 0.26 0.21 0.21 0.21 0.20 0.21 0.21 0.22 0.22 0.21 0.21 0.21 0.23 0.24 0.25 0.26 0.27 0.27 0.27 0.26 0.25 0.25 0.27 0.28 0.30 0.31 0.33 0.35 0.36 0.37 0.38 0.42 0.43 0.44 0.46 0.46 0.48 0.49 0.47 0.41 0.38 0.36 0.34 0.32 0.32
0.24 0.22 0.19 0.17 0.18 0.19 0.19 0.18 0.19 0.19 0.19 0.20 0.19 0.20 0.20 0.19 0.21 0.22 0.22 0.23 0.27 0.26 0.26 0.23 0.19 0.16 0.17 0.16 0.23 0.26 0.28 0.33 0.41 0.45 0.50 0.52 0.41 0.28 0.22 0.20 0.20 0.21 0.19 0.21 0.20 0.19 0.19 0.19 0.19 0.19 0.19 0.21 0.22 0.23 0.23 0.23 0.22 0.22 0.21 0.21 0.22 0.22 0.24 0.26 0.27 0.27 0.28 0.29 0.31 0.32 0.33 0.37 0.38 0.38 0.39 0.42 0.42 0.42 0.45 0.47 0.46 0.42 0.40 0.36 0.32
0.22 0.21 0.20 0.19 0.19 0.19 0.19 0.19 0.18 0.17 0.17 0.18 0.18 0.19 0.20 0.19 0.21 0.21 0.22 0.22 0.23 0.24 0.24 0.22 0.20 0.18 0.21 0.19 0.20 0.26 0.27 0.25 0.24 0.27 0.29 0.29 0.26 0.21 0.19 0.20 0.21 0.20 0.18 0.18 0.19 0.18 0.18 0.17 0.17 0.18 0.18 0.17 0.17 0.16 0.16 0.16 0.17 0.16 0.16 0.15 0.16 0.17 0.21 0.20 0.23 0.24 0.24 0.24 0.25 0.27 0.30 0.32 0.35 0.36 0.36 0.34 0.33 0.35 0.36 0.37 0.40 0.45 0.46 0.45 0.44
0.20 0.17 0.16 0.16 0.19 0.20 0.20 0.19 0.17 0.17 0.17 0.17 0.17 0.19 0.20 0.20 0.19 0.19 0.20 0.19 0.18 0.19 0.22 0.22 0.21 0.21 0.22 0.25 0.28 0.27 0.24 0.24 0.25 0.26 0.28 0.27 0.23 0.20 0.20 0.21 0.20 0.19 0.19 0.19 0.19 0.18 0.18 0.17 0.17 0.16 0.16 0.16 0.15 0.16 0.16 0.15 0.15 0.14 0.13 0.13 0.13 0.13 0.14 0.15 0.16 0.18 0.20 0.21 0.21 0.22 0.24 0.26 0.29 0.32 0.33 0.31 0.28 0.28 0.30 0.32 0.32 0.34 0.38 0.40 0.41
0.22 0.19 0.16 0.16 0.19 0.18 0.19 0.19 0.18 0.19 0.19 0.19 0.17 0.18 0.20 0.19 0.20 0.21 0.22 0.20 0.18 0.18 0.20 0.22 0.23 0.23 0.24 0.28 0.33 0.31 0.24 0.24 0.22 0.22 0.21 0.22 0.22 0.22 0.21 0.19 0.19 0.20 0.21 0.22 0.21 0.20 0.19 0.18 0.17 0.16 0.15 0.14 0.14 0.15 0.15 0.15 0.15 0.13 0.12 0.12 0.12 0.13 0.13 0.14 0.14 0.15 0.16 0.18 0.19 0.19 0.20 0.21 0.22 0.25 0.28 0.29 0.28 0.28 0.29 0.28 0.27 0.31 0.31 0.29 0.28
0.24 0.21 0.19 0.18 0.19 0.20 0.18 0.18 0.18 0.19 0.20 0.19 0.19 0.20 0.21 0.21 0.21 0.22 0.22 0.19 0.18 0.18 0.19 0.22 0.24 0.24 0.28 0.33 0.31 0.34 0.31 0.30 0.27 0.25 0.25 0.22 0.20 0.19 0.18 0.18 0.20 0.20 0.20 0.21 0.21 0.21 0.20 0.18 0.17 0.15 0.14 0.14 0.14 0.15 0.15 0.15 0.14 0.14 0.13 0.12 0.12 0.12 0.12 0.12 0.13 0.13 0.14 0.15 0.16 0.17 0.18 0.19 0.20 0.22 0.23 0.24 0.27 0.27 0.26 0.28 0.30 0.30 0.30 0.30 0.27
0.24 0.24 0.22 0.20 0.18 0.20 0.20 0.18 0.19 0.19 0.18 0.19 0.19 0.21 0.22 0.22 0.21 0.23 0.22 0.19 0.18 0.18 0.19 0.20 0.22 0.24 0.27 0.29 0.29 0.32 0.26 0.25 0.24 0.23 0.23 0.23 0.21 0.19 0.20 0.19 0.19 0.20 0.20 0.21 0.23 0.22 0.20 0.18 0.16 0.15 0.15 0.14 0.15 0.15 0.15 0.15 0.15 0.14 0.14 0.13 0.13 0.12 0.12 0.12 0.13 0.13 0.13 0.14 0.14 0.14 0.15 0.17 0.19 0.21 0.21 0.25 0.23 0.23 0.24 0.26 0.27 0.28 0.31 0.31 0.30
0.24 0.24 0.24 0.22 0.21 0.22 0.23 0.21 0.19 0.18 0.17 0.17 0.18 0.20 0.21 0.22 0.23 0.23 0.21 0.20 0.19 0.18 0.18 0.18 0.19 0.20 0.23 0.23 0.24 0.23 0.22 0.21 0.21 0.22 0.23 0.22 0.21 0.20 0.19 0.19 0.19 0.20 0.21 0.21 0.21 0.20 0.19 0.18 0.16 0.16 0.15 0.15 0.16 0.16 0.17 0.16 0.15 0.15 0.15 0.15 0.14 0.14 0.13 0.13 0.13 0.14 0.13 0.13 0.13 0.13 0.14 0.14 0.16 0.17 0.18 0.19 0.21 0.22 0.22 0.22 0.24 0.24 0.26 0.29 0.30
0.24 0.24 0.24 0.24 0.22 0.21 0.21 0.21 0.20 0.19 0.20 0.19 0.19 0.18 0.19 0.21 0.21 0.20 0.20 0.18 0.17 0.17 0.19 0.19 0.20 0.21 0.22 0.23 0.21 0.19 0.19 0.19 0.21 0.22 0.22 0.21 0.19 0.19 0.19 0.19 0.19 0.19 0.19 0.19 0.18 0.18 0.17 0.17 0.16 0.15 0.14 0.14 0.14 0.15 0.15 0.14 0.15 0.15 0.15 0.15 0.15 0.15 0.14 0.14 0.14 0.15 0.15 0.15 0.14 0.14 0.14 0.13 0.13 0.14 0.16 0.17 0.19 0.20 0.20 0.21 0.21 0.22 0.22 0.24 0.26
0.23 0.24 0.25 0.25 0.22 0.22 0.21 0.20 0.22 0.21 0.19 0.19 0.18 0.17 0.17 0.18 0.20 0.20 0.19 0.18 0.18 0.18 0.19 0.19 0.19 0.21 0.23 0.23 0.23 0.22 0.21 0.20 0.21 0.22 0.22 0.21 0.21 0.19 0.18 0.20 0.21 0.19 0.19 0.17 0.17 0.17 0.16 0.16 0.16 0.15 0.14 0.13 0.12 0.12 0.12 0.12 0.13 0.14 0.15 0.15 0.15 0.15 0.15 0.15 0.15 0.15 0.16 0.16 0.15 0.14 0.14 0.14 0.14 0.14 0.14 0.15 0.16 0.18 0.18 0.19 0.20 0.21 0.22 0.22 0.24
0.22 0.23 0.24 0.25 0.24 0.22 0.22 0.21 0.22 0.20 0.20 0.22 0.22 0.20 0.17 0.17 0.19 0.20 0.19 0.18 0.19 0.20 0.20 0.20 0.20 0.22 0.24 0.25 0.25 0.24 0.23 0.22 0.22 0.22 0.22 0.21 0.20 0.18 0.18 0.19 0.19 0.19 0.19 0.18 0.17 0.16 0.15 0.16 0.16 0.15 0.14 0.11 0.10 0.09 0.09 0.09 0.10 0.10 0.11 0.12 0.13 0.14 0.15 0.15 0.15 0.14 0.14 0.14 0.14 0.14 0.14 0.14 0.13 0.14 0.15 0.16 0.16 0.17 0.18 0.18 0.19 0.20 0.20 0.20 0.23
0.22 0.22 0.23 0.24 0.25 0.25 0.24 0.23 0.23 0.24 0.23 0.23 0.24 0.22 0.18 0.18 0.21 0.19 0.19 0.20 0.20 0.20 0.21 0.20 0.20 0.21 0.24 0.26 0.26 0.25 0.25 0.23 0.23 0.23 0.23 0.22 0.21 0.20 0.18 0.17 0.17 0.16 0.15 0.13 0.14 0.14 0.14 0.14 0.13 0.13 0.12 0.11 0.09 0.08 0.08 0.08 0.09 0.09 0.09 0.10 0.10 0.10 0.11 0.11 0.12 0.12 0.12 0.12 0.12 0.13 0.13 0.13 0.13 0.13 0.13 0.14 0.15 0.16 0.16 0.17 0.18 0.18 0.18 0.19 0.21
0.22 0.23 0.23 0.23 0.24 0.27 0.27 0.28 0.27 0.26 0.25 0.25 0.24 0.22 0.20 0.19 0.21 0.18 0.20 0.19 0.19 0.21 0.21 0.20 0.19 0.21 0.24 0.26 0.26 0.26 0.24 0.23 0.22 0.21 0.21 0.21 0.20 0.19 0.18 0.18 0.17 0.15 0.14 0.12 0.11 0.10 0.11 0.10 0.10 0.10 0.10 0.09 0.09 0.08 0.08 0.08 0.08 0.08 0.09 0.09 0.09 0.09 0.09 0.09 0.10 0.09 0.09 0.09 0.10 0.10 0.11 0.11 0.11 0.12 0.13 0.14 0.14 0.15 0.16 0.15 0.16 0.16 0.17 0.18 0.18
0.22 0.23 0.24 0.23 0.24 0.25 0.28 0.29 0.29 0.29 0.28 0.27 0.24 0.22 0.22 0.21 0.19 0.18 0.21 0.20 0.22 0.22 0.22 0.20 0.20 0.21 0.22 0.24 0.26 0.25 0.24 0.22 0.21 0.20 0.19 0.19 0.17 0.16 0.16 0.15 0.14 0.13 0.11 0.10 0.09 0.08 0.08 0.08 0.08 0.09 0.09 0.09 0.09 0.08 0.08 0.08 0.08 0.08 0.08 0.08 0.08 0.08 0.08 0.08 0.08 0.08 0.08 0.09 0.08 0.08 0.09 0.09 0.09 0.09 0.10 0.11 0.12 0.13 0.14 0.14 0.15 0.15 0.16 0.16 0.18
0.22 0.23 0.23 0.24 0.24 0.25 0.25 0.27 0.27 0.27 0.26 0.25 0.26 0.25 0.22 0.17 0.16 0.18 0.19 0.20 0.22 0.21 0.19 0.19 0.20 0.21 0.21 0.22 0.22 0.21 0.20 0.19 0.18 0.18 0.17 0.16 0.15 0.14 0.13 0.12 0.11 0.10 0.09 0.08 0.07 0.07 0.06 0.06 0.07 0.07 0.07 0.08 0.08 0.08 0.08 0.08 0.08 0.09 0.09 0.08 0.07 0.08 0.08 0.08 0.07 0.08 0.08 0.08 0.08 0.08 0.08 0.08 0.08 0.08 0.08 0.09 0.09 0.10 0.11 0.12 0.13 0.14 0.15 0.15 0.16
0.21 0.22 0.22 0.24 0.25 0.25 0.25 0.26 0.25 0.25 0.25 0.26 0.24 0.22 0.19 0.18 0.18 0.19 0.20 0.21 0.21 0.21 0.20 0.21 0.20 0.20 0.20 0.20 0.20 0.19 0.17 0.15 0.14 0.14 0.13 0.12 0.12 0.11 0.10 0.09 0.08 0.07 0.07 0.06 0.06 0.06 0.06 0.06 0.06 0.06 0.06 0.07 0.07 0.07 0.07 0.07 0.08 0.09 0.08 0.07 0.08 0.08 0.08 0.08 0.08 0.07 0.08 0.08 0.08 0.07 0.07 0.07 0.07 0.07 0.07 0.07 0.08 0.09 0.09 0.10 0.11 0.12 0.13 0.14 0.14